User: anonymous   Login
Location: Del Oro Observatory
(38.3044°N, 104.8119°W)
Time: 08:00:08
(UTC-06:00)
Language:

Cosmos 1602 Rocket - Orbit

View from above orbital plane
View from above orbital plane
View from above satellite
View from above satellite

Ground track
Ground track

The orbit data is extracted from the following two-line orbital elements,

1 15332U 84105B   14304.26039699  .00000503  00000-0  59131-4 0  8000
2 15332 082.5365 005.1394 0019823 295.7606 126.0232 14.82837937624308
Epoch (UTC): 31 October 2014 06:14:58
Eccentricity: 0.0019823
inclination: 82.5365°
perigee height: 606 km
apogee height: 634 km
right ascension of ascending node: 5.1394°
argument of perigee: 295.7606°
revolutions per day: 14.82837937
mean anomaly at epoch: 126.0232°
orbit number at epoch: 62430

The dashed part of the orbit path shows where the satellite is in the earth's shadow,  

DLR